Location: Pl�tzky
(52.0521°N, 11.8020°E)
Time: 03:22:05
(UTC+00:00)

USA 229 - Pass Details

Date: 22 November 2019
Orbit: 998 x 1215 km, 63.4° (Epoch: 11 December)

Event Time Altitude Azimuth Distance (km) Brightness Sun altitude
Rises 16:32:06 0° 236° (SW) 3,746 8.2 -11.8°
Reaches altitude 10° 16:34:40 10° 239° (WSW) 2,817 7.3 -12.2°
Maximum altitude 16:41:17 67° 322° (NW) 1,145 3.9 -13.2°
Enters shadow 16:47:33 13° 44° (NE) 2,712 5.3 -14.1°
